Location: Dalton
(34.7700°N, 84.9700°W)
Time: 13:23:24
(UTC-04:00)

OTV 5 (USA 277) - Pass Details

Date: 15 October 2017
Orbit: 404 x 417 km, 43.0° (Epoch: 07 September)

Event Time Altitude Azimuth Distance (km) Brightness Sun altitude
Rises 20:17:45 0° 292° (WNW) 2,353 ? -15.8°
Reaches altitude 10° 20:20:16 10° 310° (NW) 1,490 ? -16.3°
Maximum altitude 20:22:48 19° 359° (N) 1,048 ? -16.8°
Enters shadow 20:23:45 17° 22° (NNE) 1,121 ? -17.0°
